Regional Weather Roundup
Issued by NWS Kansas City/Pleasant Hill, MO

Home | Current Version | Previous Version | Graphics & Text | Print | Product List | Glossary Off
Versions: 1 2 3 4 5 6 7 8 9 10 11 12 13 14 15 16 17 18 19 20 21 22 23 24 25 26 27 28 29 30 31 32 33 34 35 36 37 38 39 40 41 42 43 44 45 46 47 48 49 50

000
ASUS43 KEAX 302310
RWREAX

WEATHER ROUNDUP FOR EASTERN KANSAS AND NORTHWEST MISSOURI
NATIONAL WEATHER SERVICE KANSAS CITY/PLEASANT HILL MO
600 PM CDT TUE SEP 30 2014

KSZ040-057-103>105-MOZ028-029-037-043-010000-
...KANSAS CITY METROPOLITAN AREA...

CITY           SKY/WX    TMP DP  RH WIND       PRES   REMARKS
K.C. INTL      MOSUNNY   79  58  48 S13       29.79S
K.C. DOWNTOWN  SUNNY     83  57  41 S10       29.78F
LEES SUMMIT    MOSUNNY   81  57  43 S10G18    29.81F
OLATHE - IXD   SUNNY     80  58  46 S12       29.80S
OLATHE - OJC   SUNNY     80  57  45 S13       29.79F
LAWRENCE       SUNNY     81  57  43 S13       29.77S

$$

MOZ001>008-011>017-020>025-030>033-038>040-044>046-053-054-010000-
...NORTHERN AND CENTRAL MISSOURI...

CITY           SKY/WX    TMP DP  RH WIND       PRES   REMARKS
ST. JOSEPH     PTSUNNY   82  58  43 S12       29.77S
MOSBY          PTCLDY    81  55  41 SE7       29.79F
WHITEMAN AFB   MOSUNNY   80  60  51 S8        29.82F
CLINTON        HAZE      81  63  54 CALM      29.83S VSB 1
SEDALIA        SUNNY     82  58  43 S10       29.84S
WARSAW         NOT AVBL
MARSHALL       SUNNY     84  59  42 S8        29.83S
CHILLICOTHE      N/A     82  59  45 S5        29.82R
MOBERLY        CLEAR     81  59  47 E9        29.85
KIRKSVILLE     CLEAR     73  61  65 E12       29.87S

$$

MOZ041-047>049-056>058-063>065-088>090-097-010000-
...EASTERN AND SOUTHERN MISSOURI...

CITY           SKY/WX    TMP DP  RH WIND       PRES   REMARKS
ST. LOUIS INTL MOCLDY    82  55  39 E9        29.88S
SPIRIT OF STL  PTCLDY   N/A N/A N/A E6        29.86R
COLUMBIA       PTCLDY    81  58  45 S6        29.85S
JEFFERSON CITY CLEAR     84  54  35 S5        29.83S
MEXICO         CLEAR     82  61  47 SE5       29.86
HANNIBAL       CLEAR     75  57  53 E3        29.88F
ROLLA          PTCLDY    81  52  36 SW6       29.86S
LEBANON        CLEAR     81  54  39 S5        29.88S
OSAGE BEACH    CLEAR     82  57  42 S5        29.85S
SPRINGFIELD    MOSUNNY   80  57  45 S9        29.86S
BRANSON        MOSUNNY   82  55  39 S6        29.89S
NEVADA           N/A     81  59  47 S8        29.83S HAZE
JOPLIN         SUNNY     80  61  52 S10       29.83F
WEST PLAINS    CLEAR     79  52  38 S6        29.91S

$$

IAZ060-094-KSZ022-034>040-054-083-096-NEZ052-066-093-010000-
...KANSAS...SOUTHEAST NEBRASKA AND IOWA...

CITY           SKY/WX    TMP DP  RH WIND       PRES   REMARKS
TOPEKA         PTSUNNY   83  58  42 S16       29.75F
MANHATTAN      MOSUNNY   83  61  47 S18G28    29.70F
EMPORIA        MOSUNNY   80  62  54 S16G26    29.75F
CHANUTE        SUNNY     80  62  54 S17       29.79F
WICHITA        MOSUNNY   85  57  38 S22       29.70F
OMAHA          TSTM      66  64  93 E9        29.79F FOG
LINCOLN        LGT RAIN  63  60  90 SE13      29.77F
FALLS CITY     PTSUNNY   71  65  81 NE6       29.75F
LAMONI         PTSUNNY   74  65  73 E10       29.82S
DES MOINES     CLOUDY    70  58  65 E10       29.83S

$$



USA.gov is the U.S. government's official web portal to all federal, state and local government web resources and services.